FJI102 NZAA-NFFN

Flight info

Callsign FJI102
Flight time 2h 29m
Altitude 40000
Route KALAG A578 AGTOS A577 MI
Aircraft A359/H-SDE2E3GHIJ3J4J5LM1ORWXY/LB1D1

Departure

Time 2026-05-06 06:30
Airport Auckland International Airport (NZAA)

Arrival

Time 2026-05-06 08:59
Airport Nadi International Airport (NFFN)
Time Latitude Longitude Altitude Speed Heading
2026-05-06 05:44 -37.00654 174.78336 32 ft 0 kts 294°
2026-05-06 06:18 -37.00660 174.78353 31 ft 3 kts 294°
2026-05-06 06:19 -37.00668 174.78374 31 ft 3 kts 294°
2026-05-06 06:19 -37.00675 174.78395 30 ft 3 kts 294°
2026-05-06 06:19 -37.00680 174.78419 31 ft 3 kts 256°
2026-05-06 06:19 -37.00672 174.78441 29 ft 3 kts 216°
2026-05-06 06:20 -37.00666 174.78446 30 ft 0 kts 203°
2026-05-06 06:24 -37.00699 174.78426 32 ft 11 kts 209°
2026-05-06 06:25 -37.00778 174.78381 32 ft 14 kts 192°
2026-05-06 06:25 -37.00884 174.78369 32 ft 17 kts 184°
2026-05-06 06:25 -37.01060 174.78365 32 ft 9 kts 211°
2026-05-06 06:26 -37.01104 174.78293 32 ft 12 kts 245°
2026-05-06 06:26 -37.01135 174.78186 32 ft 15 kts 251°
2026-05-06 06:26 -37.01171 174.78055 32 ft 17 kts 251°
2026-05-06 06:26 -37.01212 174.77904 32 ft 20 kts 251°
2026-05-06 06:27 -37.01260 174.77733 32 ft 22 kts 251°
2026-05-06 06:27 -37.01313 174.77543 32 ft 24 kts 251°
2026-05-06 06:27 -37.01370 174.77337 31 ft 26 kts 251°
2026-05-06 06:27 -37.01422 174.77147 32 ft 7 kts 247°
2026-05-06 06:28 -37.01447 174.77115 30 ft 6 kts 210°
2026-05-06 06:28 -37.01500 174.77097 32 ft 10 kts 192°
2026-05-06 06:28 -37.01570 174.77082 32 ft 9 kts 186°
2026-05-06 06:28 -37.01617 174.77095 32 ft 6 kts 141°
2026-05-06 06:29 -37.01616 174.77130 32 ft 0 kts 72°
2026-05-06 06:29 -37.01602 174.77186 32 ft 24 kts 72°
2026-05-06 06:29 -37.01464 174.77681 32 ft 97 kts 71°
2026-05-06 06:30 -37.01164 174.78750 33 ft 159 kts 69°
2026-05-06 06:30 -37.00775 174.80138 589 ft 170 kts 70°
2026-05-06 06:30 -37.00417 174.81509 1538 ft 161 kts 70°
2026-05-06 06:30 -37.00102 174.82842 2308 ft 167 kts 71°
2026-05-06 06:31 -36.99768 174.84332 2629 ft 194 kts 71°
2026-05-06 06:31 -36.99351 174.86064 2985 ft 220 kts 70°
2026-05-06 06:31 -36.98833 174.87974 3456 ft 241 kts 68°
2026-05-06 06:31 -36.98227 174.89984 4104 ft 252 kts 66°
2026-05-06 06:32 -36.97556 174.92026 4934 ft 256 kts 65°
2026-05-06 06:32 -36.96831 174.94089 5743 ft 261 kts 64°
2026-05-06 06:32 -36.96104 174.96194 6588 ft 267 kts 66°
2026-05-06 06:32 -36.95437 174.98404 7358 ft 276 kts 69°
2026-05-06 06:33 -36.94771 175.00682 8238 ft 277 kts 64°
2026-05-06 06:33 -36.93656 175.02602 9215 ft 274 kts 37°
2026-05-06 06:33 -36.91954 175.03558 10147 ft 272 kts
2026-05-06 06:33 -36.89992 175.03745 10548 ft 294 kts 358°
2026-05-06 06:34 -36.87869 175.03625 10911 ft 315 kts 356°
2026-05-06 06:34 -36.85640 175.03463 11533 ft 326 kts 356°
2026-05-06 06:34 -36.83350 175.03317 12269 ft 333 kts 356°
2026-05-06 06:34 -36.81009 175.03181 13053 ft 339 kts 357°
2026-05-06 06:35 -36.79440 175.03095 13580 ft 343 kts 357°
2026-05-06 06:35 -36.76219 175.02922 14584 ft 350 kts 356°
2026-05-06 06:35 -36.74604 175.02837 15060 ft 353 kts 356°
2026-05-06 06:35 -36.72133 175.02711 15732 ft 359 kts 356°
2026-05-06 06:36 -36.69615 175.02581 16419 ft 364 kts 356°
2026-05-06 06:36 -36.67064 175.02449 17127 ft 369 kts 356°
2026-05-06 06:36 -36.64484 175.02316 17821 ft 373 kts 356°
2026-05-06 06:36 -36.61876 175.02182 18501 ft 379 kts 356°
2026-05-06 06:37 -36.59220 175.02045 19109 ft 384 kts 356°
2026-05-06 06:37 -36.56533 175.01907 19700 ft 389 kts 356°
2026-05-06 06:37 -36.53808 175.01768 20303 ft 394 kts 356°
2026-05-06 06:37 -36.51049 175.01627 20916 ft 399 kts 356°
2026-05-06 06:38 -36.48253 175.01485 21538 ft 404 kts 356°
2026-05-06 06:38 -36.45461 175.01473 22142 ft 410 kts
2026-05-06 06:38 -36.42596 175.01747 22753 ft 415 kts
2026-05-06 06:38 -36.39707 175.02087 23346 ft 420 kts
2026-05-06 06:39 -36.36775 175.02435 23946 ft 425 kts
2026-05-06 06:39 -36.33816 175.02783 24444 ft 430 kts
2026-05-06 06:39 -36.30820 175.03133 24961 ft 434 kts
2026-05-06 06:39 -36.27801 175.03483 25470 ft 438 kts
2026-05-06 06:40 -36.24764 175.03835 25978 ft 442 kts
2026-05-06 06:40 -36.21685 175.04190 26475 ft 445 kts
2026-05-06 06:40 -36.18582 175.04548 26971 ft 449 kts
2026-05-06 06:40 -36.15450 175.04903 27455 ft 454 kts
2026-05-06 06:41 -36.12290 175.05266 27899 ft 459 kts
2026-05-06 06:41 -36.09101 175.05635 28381 ft 462 kts
2026-05-06 06:41 -36.05881 175.06007 28851 ft 466 kts
2026-05-06 06:41 -36.02626 175.06382 29317 ft 470 kts
2026-05-06 06:42 -35.99348 175.06758 29771 ft 474 kts
2026-05-06 06:42 -35.96049 175.07137 30221 ft 478 kts
2026-05-06 06:42 -35.92769 175.07512 30613 ft 482 kts
2026-05-06 06:42 -35.89420 175.07896 30997 ft 485 kts
2026-05-06 06:43 -35.86049 175.08281 31349 ft 488 kts
2026-05-06 06:43 -35.82655 175.08668 31710 ft 491 kts
2026-05-06 06:43 -35.79245 175.09057 32058 ft 494 kts
2026-05-06 06:43 -35.75812 175.09449 32404 ft 497 kts
2026-05-06 06:44 -35.72353 175.09843 32741 ft 500 kts
2026-05-06 06:44 -35.68881 175.10238 33095 ft 503 kts
2026-05-06 06:44 -35.65386 175.10635 33399 ft 505 kts
2026-05-06 06:44 -35.61864 175.11035 33671 ft 509 kts
2026-05-06 06:45 -35.58324 175.11437 33959 ft 512 kts
2026-05-06 06:45 -35.54766 175.11840 34253 ft 515 kts
2026-05-06 06:45 -35.51192 175.12245 34515 ft 517 kts
2026-05-06 06:45 -35.47604 175.12652 34811 ft 518 kts
2026-05-06 06:46 -35.44010 175.13059 35132 ft 518 kts
2026-05-06 06:46 -35.40478 175.13459 35550 ft 515 kts
2026-05-06 06:46 -35.36911 175.13862 35934 ft 513 kts
2026-05-06 06:46 -35.33360 175.14263 36302 ft 512 kts
2026-05-06 06:47 -35.29820 175.14662 36694 ft 510 kts
2026-05-06 06:47 -35.26297 175.15059 37066 ft 508 kts
2026-05-06 06:47 -35.22790 175.15454 37429 ft 506 kts
2026-05-06 06:47 -35.19295 175.15847 37795 ft 504 kts
2026-05-06 06:48 -35.15808 175.16238 38152 ft 502 kts
2026-05-06 06:48 -35.12329 175.16629 38487 ft 500 kts
2026-05-06 06:48 -35.08862 175.17017 38811 ft 499 kts
2026-05-06 06:48 -35.05410 175.17404 39108 ft 497 kts
2026-05-06 06:49 -35.01970 175.17789 39312 ft 497 kts
2026-05-06 06:49 -34.98531 175.18173 39499 ft 497 kts
2026-05-06 06:49 -34.95079 175.18559 39657 ft 497 kts
2026-05-06 06:49 -34.91674 175.18939 39825 ft 497 kts
2026-05-06 06:50 -34.88229 175.19323 39980 ft 497 kts
2026-05-06 06:50 -34.84781 175.19707 40143 ft 497 kts
2026-05-06 06:50 -34.81330 175.20092 40293 ft 498 kts
2026-05-06 06:51 -34.74422 175.20860 40349 ft 498 kts
2026-05-06 06:51 -34.67514 175.21627 40346 ft 498 kts
2026-05-06 06:52 -34.60602 175.22393 40342 ft 499 kts
2026-05-06 06:52 -34.53676 175.23160 40343 ft 499 kts
2026-05-06 06:53 -34.46799 175.23919 40343 ft 499 kts
2026-05-06 06:53 -34.39838 175.24687 40343 ft 499 kts
2026-05-06 06:54 -34.32970 175.25444 40344 ft 500 kts
2026-05-06 06:54 -34.26033 175.26206 40343 ft 500 kts
2026-05-06 06:55 -34.19095 175.26968 40344 ft 500 kts
2026-05-06 06:55 -34.12161 175.27728 40335 ft 500 kts
2026-05-06 06:56 -34.05226 175.28486 40344 ft 501 kts
2026-05-06 06:56 -33.98282 175.29245 40341 ft 501 kts
2026-05-06 06:57 -33.91336 175.30002 40338 ft 501 kts
2026-05-06 06:57 -33.84391 175.30759 40332 ft 501 kts
2026-05-06 06:58 -33.77478 175.31510 40333 ft 502 kts
2026-05-06 06:58 -33.70516 175.32266 40330 ft 502 kts
2026-05-06 06:59 -33.63551 175.33150 40330 ft 503 kts
2026-05-06 06:59 -33.56610 175.34244 40327 ft 504 kts
2026-05-06 07:00 -33.49645 175.35342 40331 ft 505 kts
2026-05-06 07:00 -33.42674 175.36405 40333 ft 505 kts
2026-05-06 07:01 -33.35695 175.37449 40330 ft 505 kts
2026-05-06 07:01 -33.28724 175.38488 40327 ft 505 kts
2026-05-06 07:02 -33.21800 175.39520 40322 ft 505 kts
2026-05-06 07:02 -33.14821 175.40559 40319 ft 505 kts
2026-05-06 07:03 -33.07859 175.41594 40319 ft 505 kts
2026-05-06 07:03 -33.00874 175.42630 40325 ft 506 kts
2026-05-06 07:04 -32.93894 175.43672 40319 ft 505 kts
2026-05-06 07:04 -32.86920 175.44701 40319 ft 504 kts
2026-05-06 07:05 -32.79956 175.45727 40306 ft 504 kts
2026-05-06 07:05 -32.72973 175.46755 40317 ft 506 kts
2026-05-06 07:06 -32.65970 175.47786 40320 ft 507 kts
2026-05-06 07:06 -32.58973 175.48815 40317 ft 507 kts
2026-05-06 07:07 -32.52020 175.49836 40302 ft 507 kts
2026-05-06 07:07 -32.45006 175.50864 40302 ft 508 kts
2026-05-06 07:08 -32.37979 175.51892 40310 ft 508 kts
2026-05-06 07:08 -32.30946 175.52920 40312 ft 509 kts
2026-05-06 07:09 -32.23928 175.53944 40315 ft 509 kts
2026-05-06 07:09 -32.16871 175.54971 40299 ft 511 kts
2026-05-06 07:10 -32.09804 175.55999 40292 ft 512 kts
2026-05-06 07:10 -32.02735 175.57026 40296 ft 512 kts
2026-05-06 07:11 -31.95709 175.58044 40299 ft 513 kts
2026-05-06 07:11 -31.88628 175.59069 40293 ft 513 kts
2026-05-06 07:12 -31.81521 175.60096 40295 ft 514 kts
2026-05-06 07:12 -31.74433 175.61119 40292 ft 514 kts
2026-05-06 07:13 -31.67324 175.62143 40288 ft 515 kts
2026-05-06 07:13 -31.60200 175.63167 40286 ft 516 kts
2026-05-06 07:14 -31.53075 175.64191 40286 ft 516 kts
2026-05-06 07:14 -31.45940 175.65215 40283 ft 516 kts
2026-05-06 07:15 -31.38811 175.66235 40284 ft 518 kts
2026-05-06 07:15 -31.31684 175.67254 40279 ft 519 kts
2026-05-06 07:16 -31.24516 175.68277 40277 ft 519 kts
2026-05-06 07:16 -31.17331 175.69302 40279 ft 519 kts
2026-05-06 07:17 -31.10159 175.70322 40275 ft 520 kts
2026-05-06 07:17 -31.02965 175.71345 40276 ft 521 kts
2026-05-06 07:18 -30.95771 175.72366 40271 ft 521 kts
2026-05-06 07:18 -30.88570 175.73389 40264 ft 521 kts
2026-05-06 07:19 -30.81371 175.74406 40272 ft 522 kts
2026-05-06 07:19 -30.74143 175.75419 40273 ft 523 kts
2026-05-06 07:20 -30.66918 175.76433 40268 ft 523 kts
2026-05-06 07:20 -30.59694 175.77447 40265 ft 523 kts
2026-05-06 07:21 -30.52509 175.78454 40266 ft 523 kts
2026-05-06 07:21 -30.45277 175.79466 40265 ft 523 kts
2026-05-06 07:22 -30.38050 175.80476 40265 ft 523 kts
2026-05-06 07:22 -30.30824 175.81489 40256 ft 522 kts
2026-05-06 07:23 -30.23607 175.82493 40254 ft 523 kts
2026-05-06 07:23 -30.16382 175.83495 40254 ft 523 kts
2026-05-06 07:24 -30.10374 175.84329 40252 ft 523 kts
2026-05-06 07:24 -30.03156 175.85331 40240 ft 523 kts
2026-05-06 07:25 -29.95920 175.86333 40244 ft 524 kts
2026-05-06 07:25 -29.88661 175.87337 40246 ft 525 kts
2026-05-06 07:26 -29.81406 175.88340 40245 ft 525 kts
2026-05-06 07:26 -29.74150 175.89341 40236 ft 525 kts
2026-05-06 07:27 -29.66882 175.90341 40244 ft 526 kts
2026-05-06 07:27 -29.59662 175.91334 40237 ft 526 kts
2026-05-06 07:28 -29.52392 175.92333 40238 ft 526 kts
2026-05-06 07:28 -29.41489 175.93828 40231 ft 526 kts
2026-05-06 07:29 -29.34216 175.94823 40236 ft 526 kts
2026-05-06 07:29 -29.26937 175.95817 40233 ft 526 kts
2026-05-06 07:30 -29.19652 175.96811 40231 ft 526 kts
2026-05-06 07:30 -29.12375 175.97803 40229 ft 527 kts
2026-05-06 07:31 -29.05100 175.98793 40228 ft 527 kts
2026-05-06 07:31 -28.97810 175.99783 40228 ft 527 kts
2026-05-06 07:32 -28.90536 176.00770 40222 ft 527 kts
2026-05-06 07:32 -28.83306 176.01749 40223 ft 527 kts
2026-05-06 07:33 -28.76015 176.02736 40219 ft 527 kts
2026-05-06 07:33 -28.68736 176.03719 40217 ft 526 kts
2026-05-06 07:34 -28.61452 176.04702 40215 ft 526 kts
2026-05-06 07:34 -28.54177 176.05682 40213 ft 526 kts
2026-05-06 07:35 -28.46899 176.06661 40208 ft 526 kts
2026-05-06 07:35 -28.39629 176.07638 40209 ft 526 kts
2026-05-06 07:36 -28.32360 176.08613 40205 ft 526 kts
2026-05-06 07:36 -28.25091 176.09587 40202 ft 526 kts
2026-05-06 07:37 -28.17829 176.10559 40202 ft 526 kts
2026-05-06 07:37 -28.10602 176.11524 40197 ft 526 kts
2026-05-06 07:38 -28.03337 176.12494 40199 ft 526 kts
2026-05-06 07:38 -27.96069 176.13462 40191 ft 526 kts
2026-05-06 07:39 -27.88803 176.14429 40193 ft 526 kts
2026-05-06 07:39 -27.81540 176.15395 40190 ft 526 kts
2026-05-06 07:40 -27.74252 176.16370 40189 ft 526 kts
2026-05-06 07:40 -27.66989 176.17330 40192 ft 526 kts
2026-05-06 07:41 -27.59749 176.18284 40188 ft 526 kts
2026-05-06 07:41 -27.52490 176.19242 40191 ft 526 kts
2026-05-06 07:42 -27.45214 176.20203 40185 ft 525 kts
2026-05-06 07:42 -27.37950 176.21160 40176 ft 526 kts
2026-05-06 07:43 -27.30683 176.22117 40177 ft 526 kts
2026-05-06 07:43 -27.23411 176.23073 40179 ft 526 kts
2026-05-06 07:44 -27.16130 176.24029 40177 ft 526 kts
2026-05-06 07:44 -27.08861 176.24983 40168 ft 526 kts
2026-05-06 07:45 -27.01629 176.25930 40174 ft 526 kts
2026-05-06 07:45 -26.94344 176.26883 40169 ft 526 kts
2026-05-06 07:46 -26.87077 176.27832 40165 ft 526 kts
2026-05-06 07:46 -26.79795 176.28782 40166 ft 526 kts
2026-05-06 07:47 -26.72509 176.29731 40168 ft 527 kts
2026-05-06 07:47 -26.65236 176.30678 40162 ft 527 kts
2026-05-06 07:48 -26.57952 176.31625 40161 ft 527 kts
2026-05-06 07:48 -26.50668 176.32570 40145 ft 527 kts
2026-05-06 07:49 -26.43385 176.33514 40153 ft 527 kts
2026-05-06 07:49 -26.36155 176.34450 40155 ft 526 kts
2026-05-06 07:50 -26.28880 176.35391 40151 ft 526 kts
2026-05-06 07:50 -26.21598 176.36331 40151 ft 526 kts
2026-05-06 07:51 -26.14320 176.37270 40145 ft 526 kts
2026-05-06 07:51 -26.07050 176.38207 40143 ft 526 kts
2026-05-06 07:52 -25.99768 176.39144 40140 ft 526 kts
2026-05-06 07:52 -25.92496 176.40078 40140 ft 526 kts
2026-05-06 07:53 -25.85224 176.41011 40137 ft 526 kts
2026-05-06 07:53 -25.77943 176.41944 40135 ft 526 kts
2026-05-06 07:54 -25.70674 176.42875 40127 ft 526 kts
2026-05-06 07:54 -25.63440 176.43800 40127 ft 526 kts
2026-05-06 07:55 -25.56167 176.44729 40119 ft 527 kts
2026-05-06 07:55 -25.48870 176.45659 40124 ft 527 kts
2026-05-06 07:56 -25.41585 176.46587 40122 ft 527 kts
2026-05-06 07:56 -25.34293 176.47515 40113 ft 527 kts
2026-05-06 07:57 -25.27013 176.48441 40109 ft 527 kts
2026-05-06 07:57 -25.19712 176.49367 40114 ft 528 kts
2026-05-06 07:58 -25.12404 176.50294 40111 ft 528 kts
2026-05-06 07:58 -25.05113 176.51217 40105 ft 528 kts
2026-05-06 07:59 -24.97803 176.52145 40106 ft 528 kts
2026-05-06 07:59 -24.90501 176.53069 40103 ft 529 kts
2026-05-06 08:00 -24.83223 176.53986 40107 ft 529 kts
2026-05-06 08:00 -24.75906 176.54907 40109 ft 529 kts
2026-05-06 08:01 -24.68599 176.55828 40099 ft 529 kts
2026-05-06 08:01 -24.61283 176.56749 40101 ft 529 kts
2026-05-06 08:02 -24.53964 176.57669 40100 ft 529 kts
2026-05-06 08:02 -24.46660 176.58586 40094 ft 529 kts
2026-05-06 08:03 -24.39344 176.59504 40091 ft 529 kts
2026-05-06 08:03 -24.32032 176.60420 40080 ft 529 kts
2026-05-06 08:04 -24.24700 176.61336 40092 ft 530 kts
2026-05-06 08:04 -24.17357 176.62254 40086 ft 530 kts
2026-05-06 08:05 -24.10073 176.63164 40086 ft 530 kts
2026-05-06 08:05 -24.02696 176.64084 40051 ft 530 kts
2026-05-06 08:06 -23.95402 176.64992 40074 ft 532 kts
2026-05-06 08:06 -23.87998 176.65912 40075 ft 532 kts
2026-05-06 08:07 -23.80692 176.66821 40072 ft 532 kts
2026-05-06 08:07 -23.73333 176.67734 40072 ft 532 kts
2026-05-06 08:08 -23.65973 176.68647 40069 ft 532 kts
2026-05-06 08:08 -23.58613 176.69558 40064 ft 532 kts
2026-05-06 08:09 -23.51242 176.70470 40067 ft 533 kts
2026-05-06 08:09 -23.43865 176.71382 40063 ft 533 kts
2026-05-06 08:10 -23.36547 176.72285 40054 ft 533 kts
2026-05-06 08:10 -23.29174 176.73194 40057 ft 533 kts
2026-05-06 08:11 -23.21794 176.74102 40058 ft 533 kts
2026-05-06 08:11 -23.14424 176.75009 40046 ft 533 kts
2026-05-06 08:12 -23.08289 176.75763 40048 ft 533 kts
2026-05-06 08:12 -23.00900 176.76670 40048 ft 533 kts
2026-05-06 08:13 -22.93522 176.77575 40047 ft 533 kts
2026-05-06 08:13 -22.86151 176.78478 40047 ft 533 kts
2026-05-06 08:14 -22.78785 176.79379 40044 ft 533 kts
2026-05-06 08:14 -22.71415 176.80280 40037 ft 533 kts
2026-05-06 08:15 -22.64102 176.81173 40036 ft 532 kts
2026-05-06 08:15 -22.56745 176.82070 40035 ft 532 kts
2026-05-06 08:16 -22.49385 176.82967 40037 ft 532 kts
2026-05-06 08:16 -22.42035 176.83861 40013 ft 531 kts
2026-05-06 08:17 -22.34690 176.84754 40035 ft 531 kts
2026-05-06 08:17 -22.27350 176.85646 40030 ft 530 kts
2026-05-06 08:18 -22.20006 176.86537 40035 ft 530 kts
2026-05-06 08:18 -22.12671 176.87425 40020 ft 530 kts
2026-05-06 08:19 -22.05335 176.88313 40024 ft 530 kts
2026-05-06 08:19 -21.98069 176.89193 40022 ft 529 kts
2026-05-06 08:20 -21.90756 176.90076 40023 ft 528 kts
2026-05-06 08:20 -21.83443 176.90958 40020 ft 528 kts
2026-05-06 08:21 -21.76137 176.91839 39997 ft 528 kts
2026-05-06 08:21 -21.68830 176.92719 40017 ft 527 kts
2026-05-06 08:22 -21.61557 176.93595 40018 ft 526 kts
2026-05-06 08:22 -21.54274 176.94470 40018 ft 526 kts
2026-05-06 08:23 -21.47040 176.95338 40013 ft 526 kts
2026-05-06 08:23 -21.39776 176.96209 40012 ft 526 kts
2026-05-06 08:24 -21.32503 176.97081 40007 ft 526 kts
2026-05-06 08:24 -21.25228 176.97952 40007 ft 526 kts
2026-05-06 08:25 -21.17956 176.98821 40007 ft 526 kts
2026-05-06 08:25 -21.10687 176.99690 39980 ft 525 kts
2026-05-06 08:26 -21.03424 177.00557 40004 ft 524 kts
2026-05-06 08:26 -20.96190 177.01420 40001 ft 523 kts
2026-05-06 08:27 -20.88998 177.02276 40001 ft 523 kts
2026-05-06 08:27 -20.81755 177.03138 39998 ft 523 kts
2026-05-06 08:28 -20.74529 177.03997 39987 ft 519 kts
2026-05-06 08:28 -20.67411 177.04848 39994 ft 510 kts
2026-05-06 08:29 -20.60411 177.05680 39994 ft 502 kts
2026-05-06 08:29 -20.53482 177.06499 39822 ft 506 kts
2026-05-06 08:30 -20.49952 177.06910 39593 ft 516 kts
2026-05-06 08:30 -20.46385 177.07328 39169 ft 514 kts
2026-05-06 08:30 -20.42833 177.07749 38575 ft 514 kts
2026-05-06 08:30 -20.39280 177.08172 37901 ft 514 kts
2026-05-06 08:31 -20.35720 177.08596 37260 ft 514 kts
2026-05-06 08:31 -20.32172 177.09017 36608 ft 514 kts
2026-05-06 08:31 -20.28609 177.09440 35958 ft 515 kts
2026-05-06 08:31 -20.25086 177.09856 35268 ft 517 kts
2026-05-06 08:32 -20.21506 177.10279 34571 ft 520 kts 360°
2026-05-06 08:32 -20.17949 177.10695 33924 ft 521 kts 359°
2026-05-06 08:32 -20.14714 177.11072 33370 ft 520 kts 360°
2026-05-06 08:32 -20.11122 177.11492 32809 ft 517 kts 360°
2026-05-06 08:33 -20.07565 177.11909 32307 ft 513 kts
2026-05-06 08:33 -20.04026 177.12323 31803 ft 510 kts
2026-05-06 08:33 -20.00507 177.12735 31286 ft 507 kts
2026-05-06 08:33 -19.97008 177.13144 30782 ft 504 kts
2026-05-06 08:34 -19.93533 177.13550 30281 ft 502 kts
2026-05-06 08:34 -19.86629 177.14355 29196 ft 495 kts
2026-05-06 08:34 -19.83226 177.14753 28695 ft 491 kts
2026-05-06 08:35 -19.79846 177.15148 28195 ft 486 kts
2026-05-06 08:35 -19.76490 177.15540 27685 ft 482 kts
2026-05-06 08:35 -19.73172 177.15927 27200 ft 478 kts
2026-05-06 08:35 -19.69875 177.16311 26708 ft 474 kts
2026-05-06 08:36 -19.66601 177.16691 26222 ft 471 kts
2026-05-06 08:36 -19.63358 177.17068 25720 ft 467 kts
2026-05-06 08:36 -19.60173 177.17438 25237 ft 464 kts
2026-05-06 08:36 -19.56976 177.17810 24741 ft 461 kts
2026-05-06 08:37 -19.53792 177.18179 24245 ft 458 kts
2026-05-06 08:37 -19.50633 177.18546 23749 ft 456 kts
2026-05-06 08:37 -19.47486 177.18911 23203 ft 453 kts
2026-05-06 08:37 -19.44371 177.19273 22689 ft 448 kts
2026-05-06 08:38 -19.41286 177.19632 22182 ft 443 kts
2026-05-06 08:38 -19.38237 177.19987 21699 ft 438 kts
2026-05-06 08:38 -19.35223 177.20337 21214 ft 433 kts
2026-05-06 08:38 -19.32242 177.20683 20731 ft 429 kts
2026-05-06 08:39 -19.29283 177.21009 20216 ft 426 kts
2026-05-06 08:39 -19.26347 177.21247 19711 ft 422 kts
2026-05-06 08:39 -19.23423 177.21472 19236 ft 418 kts
2026-05-06 08:39 -19.20528 177.21701 18760 ft 415 kts
2026-05-06 08:40 -19.17660 177.21934 18298 ft 411 kts
2026-05-06 08:40 -19.14820 177.22168 17772 ft 407 kts
2026-05-06 08:40 -19.12048 177.22398 17315 ft 402 kts
2026-05-06 08:40 -19.09268 177.22630 16857 ft 397 kts
2026-05-06 08:41 -19.06544 177.22920 16383 ft 390 kts 11°
2026-05-06 08:41 -19.03885 177.23293 15954 ft 382 kts 10°
2026-05-06 08:41 -19.01266 177.23615 15529 ft 374 kts
2026-05-06 08:41 -18.98703 177.23884 15102 ft 367 kts
2026-05-06 08:42 -18.96174 177.24124 14666 ft 362 kts
2026-05-06 08:42 -18.93670 177.24347 14264 ft 359 kts
2026-05-06 08:42 -18.91180 177.24564 13849 ft 359 kts
2026-05-06 08:42 -18.88699 177.24777 13394 ft 356 kts
2026-05-06 08:43 -18.86235 177.24985 12976 ft 353 kts
2026-05-06 08:43 -18.83794 177.25191 12537 ft 351 kts
2026-05-06 08:43 -18.81369 177.25393 12161 ft 349 kts
2026-05-06 08:43 -18.78950 177.25596 11802 ft 347 kts
2026-05-06 08:44 -18.76553 177.25798 11386 ft 343 kts
2026-05-06 08:44 -18.74176 177.25997 11011 ft 340 kts
2026-05-06 08:44 -18.71874 177.26181 10866 ft 324 kts
2026-05-06 08:44 -18.69672 177.26350 10746 ft 309 kts
2026-05-06 08:45 -18.67571 177.26507 10577 ft 301 kts
2026-05-06 08:45 -18.65530 177.26664 10270 ft 296 kts
2026-05-06 08:45 -18.63483 177.26823 9969 ft 293 kts
2026-05-06 08:45 -18.61416 177.26994 9765 ft 306 kts 10°
2026-05-06 08:46 -18.59270 177.27185 9603 ft 309 kts 11°
2026-05-06 08:46 -18.57161 177.27365 9090 ft 299 kts
2026-05-06 08:46 -18.55045 177.27530 8717 ft 309 kts 10°
2026-05-06 08:46 -18.52902 177.27715 8528 ft 309 kts 11°
2026-05-06 08:47 -18.50759 177.27907 8118 ft 307 kts 11°
2026-05-06 08:47 -18.48649 177.28085 7756 ft 302 kts 11°
2026-05-06 08:47 -18.46555 177.28258 7440 ft 302 kts 11°
2026-05-06 08:47 -18.44466 177.28434 7129 ft 300 kts 12°
2026-05-06 08:48 -18.42381 177.28609 6814 ft 299 kts 11°
2026-05-06 08:48 -18.40321 177.28780 6510 ft 296 kts 12°
2026-05-06 08:48 -18.38286 177.28950 6193 ft 291 kts 11°
2026-05-06 08:48 -18.36270 177.29115 5885 ft 290 kts 12°
2026-05-06 08:49 -18.34262 177.29286 5581 ft 288 kts 12°
2026-05-06 08:49 -18.32270 177.29453 5278 ft 288 kts 13°
2026-05-06 08:49 -18.30275 177.29621 4990 ft 286 kts 13°
2026-05-06 08:49 -18.28294 177.29783 4688 ft 285 kts 14°
2026-05-06 08:50 -18.26311 177.29949 4286 ft 285 kts 12°
2026-05-06 08:50 -18.24358 177.30112 3743 ft 285 kts 13°
2026-05-06 08:50 -18.22394 177.30269 3591 ft 283 kts 12°
2026-05-06 08:50 -18.20426 177.30431 3531 ft 284 kts 13°
2026-05-06 08:51 -18.18465 177.30596 3465 ft 283 kts 13°
2026-05-06 08:51 -18.16499 177.30759 3395 ft 283 kts 13°
2026-05-06 08:51 -18.14535 177.30922 3327 ft 281 kts 13°
2026-05-06 08:51 -18.12585 177.31084 3247 ft 281 kts 13°
2026-05-06 08:52 -18.10642 177.31244 3177 ft 279 kts 14°
2026-05-06 08:52 -18.08700 177.31407 3111 ft 281 kts 13°
2026-05-06 08:52 -18.06761 177.31569 3044 ft 278 kts 13°
2026-05-06 08:52 -18.04832 177.31728 3002 ft 279 kts 13°
2026-05-06 08:53 -18.02888 177.31888 3001 ft 280 kts 13°
2026-05-06 08:53 -18.00950 177.32050 3002 ft 278 kts 13°
2026-05-06 08:53 -17.99086 177.32190 2981 ft 258 kts 13°
2026-05-06 08:53 -17.97363 177.32305 2984 ft 239 kts 13°
2026-05-06 08:54 -17.95761 177.32429 2974 ft 221 kts 16°
2026-05-06 08:54 -17.94281 177.32631 2982 ft 212 kts 20°
2026-05-06 08:54 -17.92851 177.32945 2991 ft 209 kts 25°
2026-05-06 08:54 -17.91460 177.33364 2984 ft 207 kts 30°
2026-05-06 08:55 -17.90119 177.33878 2987 ft 204 kts 34°
2026-05-06 08:55 -17.88824 177.34483 2988 ft 203 kts 38°
2026-05-06 08:55 -17.87592 177.35158 2908 ft 195 kts 42°
2026-05-06 08:55 -17.86457 177.35870 2699 ft 186 kts 45°
2026-05-06 08:56 -17.85390 177.36619 2352 ft 183 kts 45°
2026-05-06 08:56 -17.84660 177.37055 2100 ft 181 kts 41°
2026-05-06 08:56 -17.83385 177.38059 1696 ft 162 kts 53°
2026-05-06 08:56 -17.82547 177.38786 1337 ft 158 kts 52°
2026-05-06 08:57 -17.81668 177.39459 1105 ft 148 kts 45°
2026-05-06 08:57 -17.80853 177.40052 912 ft 137 kts 46°
2026-05-06 08:57 -17.80085 177.40641 781 ft 137 kts 47°
2026-05-06 08:57 -17.79341 177.41253 592 ft 138 kts 47°
2026-05-06 08:58 -17.78555 177.41881 394 ft 141 kts 45°
2026-05-06 08:58 -17.77796 177.42481 212 ft 137 kts 46°
2026-05-06 08:58 -17.77056 177.43089 45 ft 132 kts 40°
2026-05-06 08:58 -17.76404 177.43615 49 ft 102 kts 38°
2026-05-06 08:59 -17.75917 177.44003 48 ft 75 kts 37°
2026-05-06 08:59 -17.75560 177.44294 49 ft 55 kts 37°
2026-05-06 08:59 -17.75308 177.44497 48 ft 36 kts 37°
2026-05-06 08:59 -17.75167 177.44610 51 ft 0 kts 37°
2026-05-06 09:00 -17.75152 177.44622 51 ft 9 kts 37°
2026-05-06 09:00 -17.75117 177.44660 51 ft 10 kts 62°
2026-05-06 09:00 -17.75120 177.44734 54 ft 11 kts 104°
2026-05-06 09:00 -17.75140 177.44818 59 ft 13 kts 102°
2026-05-06 09:01 -17.75163 177.44911 54 ft 14 kts 108°
2026-05-06 09:01 -17.75181 177.44970 52 ft 0 kts 108°
2026-05-06 09:02 -17.75183 177.44975 52 ft 4 kts 109°
2026-05-06 09:02 -17.75192 177.45003 51 ft 0 kts 108°
2026-05-06 09:02 -17.75197 177.45017 51 ft 5 kts 108°
2026-05-06 09:02 -17.75197 177.45018 51 ft 0 kts 108°